IRNSS-1B

Last updated on Sat Aug 15 2026 00:02:59 GMT+0000 (Coordinated Universal Time)

1 39635U 14017A 26226.11294807 .00000114 00000+0 00000+0 0 9993 2 39635 28.8264 239.4055 0020919 193.5636 345.1858 1.00274486 45375
UTC large
Height (km)
Speed (km/s)
/
Latitude / Longitude
Inclination (degrees)
Orbital Period (minutes)
Azimuth
Elevation
Range (km)
Doppler Factor

Next 0 passes for location: London (51.5072 / 0.1276)

No passes found over London.